Regional Weather Roundup
Issued by NWS Wakefield, VA

Home | Current Version | Previous Version | Graphics & Text | Print | Product List | Glossary On
Versions: 1 2 3 4 5 6 7 8 9 10 11 12 13 14 15 16 17 18 19 20 21 22 23 24 25 26 27 28 29 30 31 32 33 34 35 36 37 38 39 40 41 42 43 44 45 46 47 48 49 50
000
ASUS41 KAKQ 271015
RWRAKQ

REGIONAL WEATHER ROUNDUP
NATIONAL WEATHER SERVICE WAKEFIELD VA
600 AM EDT FRI MAY 27 2016

Note: "fair" indicates few or no clouds below 12,000 feet with no
significant weather and/or obstructions to visibility. * = Denotes
station may not report precipitation (e.g., rain,snow,etc.),
thunder or fog.

VAZ042-051-052>054-056-271100-
NORTHERN VIRGINIA

CITY           SKY/WX    TMP DP  RH WIND       PRES   REMARKS
WASH NATIONAL  MOCLDY    70  64  81 S7        30.06S
DULLES         FAIR      68  63  84 SW3       30.07R
FORT BELVOIR   FAIR      64  62  95 CALM      30.06S FOG
QUANTICO       FAIR      70  65  84 VRB3      30.07S
FREDERICKSBRG* NOT AVBL
STAFFORD*      FAIR      65  63  92 CALM      30.10S
WARRENTON      FAIR      63  58  85 CALM      30.07R HAZE
CULPEPER*      FOG       63  63 100 CALM      30.08R VSB 1
MANASSAS*      FAIR      64  63  94 CALM      30.07R
LEESBURG*      FAIR      64  64 100 CALM      30.08R FOG
WINCHESTER     CLOUDY    68  63  83 W3        30.09R
FRONT ROYAL*   PTSUNNY   63  63 100 CALM      30.08R
LURAY*         PTSUNNY   61  61 100 CALM      30.10R FOG
$$

VAZ048-049-060>072-079>083-271100-
CENTRAL AND SOUTH CENTRAL VIRGINIA

CITY           SKY/WX    TMP DP  RH WIND       PRES   REMARKS
RICHMOND       FAIR      67  63  87 S7        30.10F
CHESTERFIELD*  FAIR      66  55  68 S5        30.12S
PETERSBURG*    FAIR      67  67 100 S3        30.12S
HANOVER        FAIR      70  63  78 S7        30.11S
TAPPAHANNOCK*  FAIR      69  64  82 S5        30.10S
QUINTON*       FAIR      69  64  84 CALM      30.10F
CHARLOTTSVILLE FAIR      67  62  84 S7        30.07F
GORDONSVILLE*  FAIR      63  63  99 CALM      30.08R
ORANGE*        FAIR      64  64 100 CALM      30.09S
LOUISA*        FAIR      72  66  83 CALM      30.07S
BUMPASS*       FAIR      67  64  88 S3        30.08F
FARMVILLE*     FAIR      67  67 100 S5        30.09S
CREWE*         FAIR      67  67 100 CALM      30.10S
FORT PICKETT*  NOT AVBL
CHASE CITY*    FAIR      67  65  91 SE3       30.12S
CLARKSVILLE*   FAIR      64  63  94 S3        30.12R
SOUTH HILL*    FAIR      63  60  91 S6        30.18S
LAWRENCEVILLE* FAIR      66  62  85 CALM      30.12S
EMPORIA*       CLOUDY    66  61  82 SE3       30.15S
$$

VAZ088>098-271100-
SOUTHEAST VIRGINIA

CITY           SKY/WX    TMP DP  RH WIND       PRES   REMARKS
NORFOLK        MOCLDY    69  62  78 SW12      30.14S
VIRGINIA BEACH FAIR      73  62  68 SW9       30.14S
NORFOLK NAVAL  FAIR      70  63  78 SW8       30.16R
WEST POINT*    FAIR      69  61  76 S6        30.13S
SALUDA*        FAIR      70  62  77 SW8       30.11S
NEWPORT NEWS   FAIR      69  62  78 SW7       30.13F
LANGLEY AFB    FAIR      71  63  76 SW13      30.13S
FORT EUSTIS    FAIR      69  61  74 S3        30.11S
WILLIAMSBURG*  FAIR      72  63  73 S9        30.13S
HR EXEC AP*    FAIR      68  63  83 S6        30.17R
FRANKLIN*      MOCLDY    67  62  84 S5        30.15S
US460-WAKEFLD  CLOUDY    69  61  75 S5        30.13S
$$

VAZ020-022-025-037-045-271100-
WEST CENTRAL AND SOUTHWEST VIRGINIA

CITY           SKY/WX    TMP DP  RH WIND       PRES   REMARKS
STAUNTON*      FAIR      60  59  98 CALM      30.13R FOG
WAYNESBORO*    FAIR      60  59  94 CALM      30.12R
HOT SPRINGS VA CLOUDY    64  60  87 W7        30.21S
LYNCHBURG      FAIR      63  62  97 CALM      30.12R
DANVILLE       FAIR      64  62  93 S5        30.12R
SOUTH BOSTON*  FAIR      65  64  95 CALM      30.12R
MARTINSVILLE   FOG       58  58 100 CALM      30.15R VSB 3/4
ROANOKE        FAIR      66  63  90 N5        30.14R
BLACKSBURG     MOCLDY    60  60 100 CALM      30.19S FOG
DUBLIN*        FAIR      60  60 100 CALM      30.17S FOG
MARION*        CLOUDY    57  56  96 CALM      30.21S FOG
HILLSVILLE*    CLOUDY    62  62  97 SW3       30.18R
RICHLANDS*     FAIR      61  53  74 CALM      30.17S
WISE*          FAIR      59  57  94 SW3       30.18R
ABINGDON*      FAIR      63  63  99 E3        30.15S
$$

MDZ021>025-VAZ099-100-271100-
SOUTHERN MARYLAND AND THE DELMARVA PENINSULA

CITY           SKY/WX    TMP DP  RH WIND       PRES   REMARKS
PATUXENT RIVER PTCLDY    71  63  75 SW13      30.07F
BAY BRIDGE APT CLEAR     72  66  83 S3        30.07R
LEONARDTOWN    CLEAR     70  63  78 S5        30.10S
DOVER          MOCLDY    71  70  96 S8        30.06S
GEORGETOWN     CLOUDY    68  63  84 S6        30.10S
EASTON         MOCLDY    72  70  93 S5        30.11S
CAMBRIDGE        N/A     68  64  88 S5        30.07F
SALISBURY      PTCLDY    67  63  87 S8        30.10S
OCEAN CITY     CLEAR     65  63  93 S5        30.12R
WALLOPS ISLAND FAIR      64  62  93 S3        30.13R
ACCOMACK*      FAIR      70  57  64 SW9G16    30.13R
$$

NCZ012>017-030>032-271100-
NORTH CENTRAL AND EASTERN NORTH CAROLINA

CITY           SKY/WX    TMP DP  RH WIND       PRES   REMARKS
ROANOKE RAPIDS FAIR      64  63  94 S5        30.14S
RALEIGH        MOCLDY    70  61  73 S6        30.14S
ELIZABETH CITY MOCLDY    66  63  90 SW6       30.16F
AHOSKIE*       CLEAR     67  62  85 S3        30.15S
EDENTON*       PTCLDY   N/A N/A N/A CALM      30.17S
CURRITUCK*     CLOUDY    67  64  88 S3        30.17S
KILL DEVIL HLS CLEAR     65  61  86 CALM      30.17R
MANTEO         NOT AVBL
CAPE HATTERAS  CLEAR     69  62  78 S3        30.17S
TARBORO*       PTSUNNY   67  64  89 CALM      30.16S
GOLDSBORO      CLEAR     66  66 100 CALM      30.14R
WASHINGTON     CLEAR     63  62  96 CALM      30.16S
GREENVILLE     PTCLDY    64  64 100 CALM      30.17R
NEW BERN       CLEAR     60  58  92 CALM      30.17S
WILMINGTON     CLEAR     64  62  93 CALM      30.15S
$$

VAZ048-271100-
ELSEWHERE

CITY           SKY/WX    TMP DP  RH WIND       PRES   REMARKS
HARRISBURG PA  CLOUDY    69  64  84 VRB5      30.04R HAZE
BALTIMORE      PTCLDY    69  63  81 CALM      30.05S
ANNAPOLIS      CLEAR     68  66  93 SE3       30.06R
ANDREWS AFB    FAIR      69  64  81 S9        30.06S
PHILADELPHIA   PTCLDY    70  62  76 S5        30.06F
HENDERSON NC   CLEAR     64  57  80 S6        30.13S
GREENSBORO     PTCLDY    67  60  78 S6        30.12S
ROCKY MOUNT    MOCLDY    67  64  90 S6        30.15S
$$

VAZ100-271100-
MARINE

STATION/POSITION TIME  TEMP    WIND        PRES    WAVE   SWELL
                       AIR SEA DIR/SP/G            HT/PER HT/PER
                 (UTC) (F)     (DEG/KT/KT) (MB)    (FT/S) (FT/S)
BRANDYWINE LGT   0900   67     210/ 10/ 11 1018.8R
CAPE MAY NJ      0900   67 66  170/  5/  9 1018.6R
LEWES DE         0900   71 60  220/  8/ 12 1018.7R
15NM E FENWICK I 0950   63 60              1019.9R   3/ 5
OCEAN-CITY-INLET 0900   61 60  210/  9/ 12 1019.7R
WACHAPREAGUE VA  0900   71 74  220/  6/ 10 1019.5R
THOMAS POINT MD  1000   69 65  180/ 12/ 12 1019.2R
GOOSES REEF MD   1000   69 65  190/  6/  8 1019.3S   1/ 2
COVE POINT MD    0900   72     250/ 13/ 17 1019.0R
SOLOMONS ISLAND  0900   71 67  220/ 12/ 15   N/A
BISHOPS HEAD MD  0900   71 72  200/ 11/ 13 1018.9R
PINEY POINT MD   0900          230/ 13/ 15   N/A
POTOMAC MD       1000   70 69  230/ 12/ 14 1017.8F   1/ 2
CAMBRIDGE MD     0900   71 65  190/  3/  6 1017.8R
LEWISETTA VA     0900   72 71  230/ 11/ 15 1018.6R
RAPPAHANNOCK LGT 0900          190/ 14/ 15 1020.4R
STINGRAY PT      0900   71 67  220/ 14/ 16 1019.6R   1/ 2
YORK RVR RNG VA  0900   72     230/ 17/ 20 1019.2R
YORKTOWN VA      0900   71 65  210/ 11/ 14 1019.6R
JAMESTOWN VA     1000   71 72  190/  6/ 10   N/A     0
DOMINION TERM VA 0900   71     220/ 14/ 17 1020.2R
KIPTOPEKE VA     0900      68  210/  9/ 11   N/A
CHES BAY BRIDGE  0900   71 66  210/ 16/ 20 1020.2R
CAPE HENRY VA    0900   71     210/  9/ 15   N/A
CHESAPEAKE LGHT  0900   69     230/ 16/ 16 1021.3R
WILLOUBY STN VA  0900   71     220/ 14/ 18 1021.3R
CAPE HENRY BUOY  0912      66                N/A     2/ 4
1ST LANDING BUOY 1000   69 65  220/ 12/ 16 1020.5R   1/ 2
CAPE CHARLES BUO 0926      66                N/A     2/ 8   2/ 8
OFFSHORE WE BUOY 0921      61                N/A     2/ 8   2/ 8
64NM E OF VA BCH 0950   63 59  210/  4/  4 1021.8R   2/ 8   2/ 8
DUCK PIER NC     0900   71 60  230/  8/ 10 1020.8R
44100 DUCK FRF   0924      65                N/A     2/ 7
44056 DUCK FRF   0911      62                N/A     1/ 8
OREGON INLET NC  0900   72 77  210/  4/  6 1021.3R
HATTERAS NC      0900   72 72  180/  3/  5 1020.9R
DIAMOND SHLS NC  0950   76 78  220/  4/  6 1021.7R   2/ 8   2/ 8
CAPE C1F1C2F2C3F3C4F4C5F5C6F6C7F7C8M1C9!


USA.gov is the U.S. government's official web portal to all federal, state and local government web resources and services.